F6255 Weather Reports


time (UTC)temp
C
wind
direction
speed
KPH
gust
KPH
rain 1hr
cm
rain 24hr
cm
rain mn
cm
humidity
%
barometer
mb
20260508220056 21 17 6.4 20.9 0.00 0.00 0.00 42 1012.3
20260508214602 21 352 8.0 17.7 0.00 0.00 0.00 41 1012.3
20260508213056 21 141 4.8 24.1 0.00 0.00 0.00 42 1012.5
20260508211557 22 29 6.4 17.7 0.00 0.00 0.00 41 1012.7
20260508210056 22 15 6.4 19.3 0.00 0.00 0.00 41 1012.6
20260508204553 21 262 4.8 17.7 0.00 0.00 0.00 41 1012.9
20260508203054 21 350 4.8 19.3 0.00 0.00 0.00 43 1013.1
20260508201551 21 40 6.4 17.7 0.00 0.00 0.00 41 1013.4
20260508200050 21 360 6.4 25.7 0.00 0.00 0.00 42 1013.6
20260508194556 21 331 9.7 22.5 0.00 0.00 0.00 41 1013.4
20260508193105 21 312 6.4 25.7 0.00 0.00 0.00 42 1013.6
20260508191556 21 352 8.0 27.4 0.00 0.00 0.00 42 1013.7
20260508190105 21 336 12.9 32.2 0.00 0.00 0.00 41 1014.1
20260508184603 21 44 9.7 25.7 0.00 0.00 0.00 41 1014.2
20260508183114 21 342 9.7 25.7 0.00 0.00 0.00 43 1014.2
20260508181559 20 327 6.4 19.3 0.00 0.00 0.00 42 1014.5
20260508180105 20 326 6.4 27.4 0.00 0.00 0.00 43 1014.9
20260508174613 20 38 9.7 22.5 0.00 0.00 0.00 45 1015.3
20260508173054 20 331 6.4 25.7 0.00 0.00 0.00 44 1015.6
20260508171554 20 48 8.0 17.7 0.00 0.00 0.00 46 1015.9
20260508170057 19 87 6.4 20.9 0.00 0.00 0.00 47 1016.2
20260508164553 19 22 6.4 19.3 0.00 0.00 0.00 46 1016.3
20260508163054 19 0 9.7 22.5 0.00 0.00 0.00 47 1016.6
20260508161548 18 5 3.2 22.5 0.00 0.00 0.00 50 1016.8
20260508160052 18 347 8.0 20.9 0.00 0.00 0.00 49 1017.0
20260508154559 18 78 6.4 22.5 0.00 0.00 0.00 52 1017.2
20260508153104 17 98 4.8 19.3 0.00 0.00 0.00 53 1017.3
20260508151603 17 30 4.8 19.3 0.00 0.00 0.00 53 1017.6
20260508144609 16 84 8.0 17.7 0.00 0.00 0.00 55 1017.7
20260508143100 16 350 3.2 19.3 0.00 0.00 0.00 57 1017.6
20260508141605 15 352 1.6 20.9 0.00 0.00 0.00 60 1017.8
20260508140057 15 306 6.4 16.1 0.00 0.00 0.00 59 1017.9
20260508134555 14 122 3.2 11.3 0.00 0.00 0.00 60 1017.9
20260508133056 13 340 1.6 16.1 0.00 0.00 0.00 61 1018.0
20260508131605 13 344 6.4 22.5 0.00 0.00 0.00 59 1017.8
20260508130055 12 63 4.8 19.3 0.00 0.00 0.00 59 1017.8
20260508124554 12 352 1.6 9.7 0.00 0.00 0.00 64 1017.7
20260508123117 11 294 1.6 8.0 0.00 0.00 0.00 66 1017.7
20260508121608 10 0 1.6 8.0 0.00 0.00 0.00 68 1017.6
20260508120111 10 332 1.6 11.3 0.00 0.00 0.00 69 1017.6
20260508114600 9 360 3.2 9.7 0.00 0.00 0.00 69 1017.6
20260508113111 8 324 3.2 6.4 0.00 0.00 0.00 70 1017.4
20260508111553 8 0 1.6 6.4 0.00 0.00 0.00 71 1017.3
20260508110107 8 0 1.6 6.4 0.00 0.00 0.00 72 1017.3
20260508104557 8 342 0.0 6.4 0.00 0.00 0.00 72 1017.2
20260508103108 8 352 0.0 6.4 0.00 0.00 0.00 73 1017.2
20260508101556 7 0 0.0 3.2 0.00 0.00 0.00 78 1017.1
20260508100055 7 0 0.0 3.2 0.00 0.00 0.00 78 1017.1
20260508094552 7 0 0.0 3.2 0.00 0.00 0.00 78 1017.1
20260508093101 7 0 0.0 1.6 0.00 0.00 0.00 84 1017.0
20260508091552 7 0 0.0 1.6 0.00 0.00 0.00 89 1016.9
20260508090100 7 136 0.0 3.2 0.00 0.00 0.00 88 1016.9
20260508084557 7 0 0.0 3.2 0.00 0.00 0.00 89 1016.9
20260508083051 7 0 0.0 3.2 0.00 0.00 0.00 88 1016.9
20260508081558 7 0 0.0 3.2 0.00 0.00 0.00 87 1016.7
20260508080052 7 136 0.0 3.2 0.00 0.00 0.00 87 1016.8
20260508074552 6 0 0.0 3.2 0.00 0.00 0.00 88 1016.8
20260508073056 6 0 0.0 1.6 0.00 0.00 0.00 89 1017.0
20260508071549 6 0 0.0 1.6 0.00 0.00 0.00 89 1017.2
20260508070053 6 0 0.0 1.6 0.00 0.00 0.00 90 1017.2
20260508064558 6 0 0.0 3.2 0.00 0.00 0.00 91 1017.3
20260508063104 6 136 1.6 3.2 0.00 0.00 0.00 92 1017.4
20260508061555 6 0 0.0 3.2 0.00 0.00 0.00 93 1017.4
20260508060058 6 0 0.0 1.6 0.00 0.00 0.00 93 1017.5
20260508054553 6 0 0.0 4.8 0.00 0.00 0.00 92 1017.7
20260508053105 6 0 0.0 3.2 0.00 0.00 0.00 93 1017.6
20260508051553 6 0 0.0 3.2 0.00 0.00 0.00 92 1017.6
20260508044554 6 0 0.0 1.6 0.00 0.00 0.00 92 1017.5
20260508043058 6 0 0.0 3.2 0.00 0.00 0.00 92 1017.5
20260508041559 6 0 0.0 1.6 0.00 0.00 0.00 91 1017.6
20260508040056 6 136 1.6 3.2 0.00 0.00 0.00 91 1017.5
20260508034558 7 0 0.0 3.2 0.00 0.00 0.00 90 1017.5
20260508033109 7 0 0.0 1.6 0.00 0.00 0.00 90 1017.6
20260508031550 7 0 0.0 3.2 0.00 0.00 0.00 89 1017.6
20260508030056 7 0 0.0 3.2 0.00 0.00 0.00 88 1017.7
20260508024554 7 136 0.0 3.2 0.00 0.00 0.00 87 1017.7
20260508023056 8 0 0.0 3.2 0.00 0.00 0.00 87 1017.6
20260508021556 8 0 0.0 1.6 0.00 0.00 0.00 85 1017.7
20260508014551 8 136 0.0 4.8 0.00 0.00 0.00 81 1017.5
20260508013057 9 136 1.6 3.2 0.00 0.00 0.00 79 1017.3
20260508011554 10 136 1.6 3.2 0.00 0.00 0.00 77 1017.1
20260508010053 10 136 1.6 3.2 0.00 0.00 0.00 74 1016.9
20260508004552 11 136 1.6 3.2 0.00 0.00 0.00 71 1016.9
20260508003051 12 136 3.2 4.8 0.00 0.00 0.00 70 1016.7
20260508001614 13 136 1.6 4.8 0.00 0.00 0.00 62 1016.4
20260508000053 15 136 1.6 4.8 0.00 0.00 0.00 55 1016.4
20260507234557 16 136 1.6 4.8 0.00 0.00 0.00 49 1016.4
20260507233058 16 137 1.6 6.4 0.00 0.00 0.00 42 1016.3
20260507231553 16 130 3.2 6.4 0.00 0.00 0.00 43 1016.2
20260507230057 16 134 4.8 12.9 0.00 0.00 0.00 41 1016.4
20260507224601 16 130 6.4 14.5 0.00 0.00 0.00 42 1016.3
20260507223056 16 160 3.2 14.5 0.00 0.00 0.00 41 1016.3
20260507221558 16 69 3.2 12.9 0.00 0.00 0.00 44 1016.3